Simultaneous Nadir Overpasses (SNOs) Predictions

Prediction of SNOs between LANDSAT-8 and METOP-B Satellite Orbit:

Table of predicted SNOs for the next 14.0 days since TLE Epoch: 8/22/2014
Index Date (LANDSAT-8) Time (LANDSAT-8) Lat,Lon (LANDSAT-8) SZA (LANDSAT-8 ) Date (METOP-B) Time (METOP-B) Lat,Lon (METOP-B) SZA (METOP-B ) Distance(km) Time Diff (sec)
1 08/24/2014 21:56:42 -81.17, 71.48 107.62 08/24/2014 21:55:38 -81.16, 71.40 107.66 1.61 64
2 08/24/2014 22:46:08 81.17,-120.83 72.41 08/24/2014 22:46:17 81.18,-120.85 72.41 0.60 9
3 08/27/2014 17:30:57 -81.17, 137.94 106.62 08/27/2014 17:29:59 -81.17, 138.01 106.64 1.18 58
4 08/27/2014 18:20:22 81.20, -54.02 73.46 08/27/2014 18:20:37 81.19, -53.88 73.48 2.25 15
5 08/30/2014 13:05:11 -81.17,-155.70 105.62 08/30/2014 13:04:20 -81.16,-155.80 105.65 1.67 51
6 08/30/2014 13:54:36 81.19, 12.33 74.46 08/30/2014 13:54:58 81.19, 12.30 74.46 0.67 22
7 09/02/2014 08:39:25 -81.18, -89.07 104.55 09/02/2014 08:38:40 -81.18, -88.88 104.55 3.30 45
8 09/02/2014 09:28:51 81.18, 78.58 75.47 09/02/2014 09:29:20 81.18, 78.45 75.47 2.28 29
9 09/05/2014 04:13:39 -81.18, -22.54 103.49 09/05/2014 04:13:01 -81.18, -22.37 103.48 2.84 38




NCC Satellite Simultaneous Nadir Overpasses (SNOs) Prediction Service
